Location: Jeseník
(50.2246°N, 17.1980°E)
Time: 21:21:19
(UTC+01:00)

ISS - Visible Passes

Search period start: 28 February 2024 00:00
Search period end: 09 March 2024 00:00
Orbit: 414 x 422 km, 51.6° (Epoch: 28 February)

Date Brightness Start Highest point End Pass type
(mag) Time Alt. Az. Time Alt. Az. Time Alt. Az.
28 Feb -1.2 03:48:08 22° ENE 03:48:08 22° ENE 03:49:31 10° ENE visible
28 Feb -3.6 05:21:04 23° WNW 05:23:03 72° N 05:26:27 10° E visible
29 Feb -3.7 04:35:01 66° NNW 04:35:08 67° N 04:38:31 10° E visible
01 Mar -1.5 03:48:57 25° ENE 03:48:57 25° ENE 03:50:33 10° E visible
01 Mar -3.8 05:21:52 20° WNW 05:24:03 82° SSW 05:27:27 10° ESE visible
02 Mar -3.9 04:35:48 72° NW 04:36:06 82° NNE 04:39:29 10° ESE visible
03 Mar -1.7 03:49:45 27° E 03:49:45 27° E 03:51:28 10° E visible
03 Mar -3.3 05:22:41 19° W 05:24:48 46° SSW 05:28:03 10° SE visible
04 Mar -3.8 04:36:39 62° SW 04:36:49 64° SSW 04:40:11 10° ESE visible
05 Mar -1.6 03:50:41 24° ESE 03:50:41 24° ESE 03:52:10 10° ESE visible
05 Mar -2.3 05:23:37 17° WSW 05:25:14 23° SW 05:27:59 10° SSE visible
06 Mar -2.8 04:37:43 32° SSW 04:37:43 32° SSW 04:40:21 10° SE visible
07 Mar -1.1 03:51:54 14° SE 03:51:54 14° SE 03:52:29 10° SE visible
07 Mar -1.5 05:24:51 11° SW 05:25:21 11° SW 05:26:17 10° SSW visible
08 Mar -1.3 04:39:10 12° S 04:39:10 12° S 04:39:37 10° S visible
